{"data":{"norad_id":59537,"intl_designator":"2024-074D","name":"STARLINK-31737","alt_names":[],"object_type":"PAYLOAD","status":"ACTIVE","operator":null,"country":"US","launch_date":"2024-04-18","launch_site_code":"AFETR","launch_vehicle":null,"mission":null,"orbit_class":"UNKNOWN","rcs_meters":null,"size_class":null,"mass_kg":null,"dimensions":null,"purposes":["comms"],"wikipedia_slug":null,"has_3d_model":false,"image_url":null,"decayed_at":null,"tle_current":{"epoch":"2026-05-25T01:13:25.212000Z","epoch_age_seconds":63853,"freshness":"FRESH","line1":"1 59537U 24074D   26145.05098625  .00017003  00000+0  62560-3 0  9991","line2":"2 59537  43.0009 272.2027 0000454 300.2999  59.7808 15.27600059117690","mean_motion":15.27600059,"eccentricity":4.54e-5,"inclination_deg":43.0009,"raan_deg":272.2027,"arg_perigee_deg":300.2999,"mean_anomaly_deg":59.7808,"bstar":0.0006256,"rev_number":11769,"period_min":94.265510891814,"perigee_km":482.67753771283,"apogee_km":483.30052795661,"semimajor_km":6861.1260328347,"source":"CELESTRAK","updated_at":"2026-05-25T13:38:18.978903Z"}}}